Theta_e
312 312 312 312 312 312 312 311 311 310 310 309 309 308 307 308 308 307 307 307 306 305 305 304 302 300 298 296 295 294 294 293 293 293 292 292 292 292 292 293 293 292 291 290 290 289 289 289 288 288 288 288 288 287 287 287 286 286 286 286 286 286
312 312 313 312 312 312 312 311 311 311 310 310 309 308 307 307 307 307 307 307 306 305 304 304 303 301 299 297 295 294 293 293 293 292 292 292 292 292 292 292 292 292 291 290 289 289 289 289 288 288 288 288 287 287 287 286 286 286 286 286 286 285
312 312 312 313 312 312 312 312 312 311 311 311 310 309 308 308 308 307 307 307 306 305 304 304 303 302 299 297 295 294 293 293 292 292 292 292 292 292 292 292 292 291 290 290 289 289 289 288 288 288 288 287 287 287 286 286 286 286 285 285 285 285
311 312 312 312 312 312 313 312 312 312 311 311 310 309 309 309 309 308 308 307 305 305 304 303 302 301 300 298 296 294 293 292 292 291 291 291 291 291 292 292 291 290 290 290 289 289 288 288 288 288 287 287 287 286 286 286 285 285 285 285 285 285
311 312 312 312 313 312 312 312 312 312 312 311 310 309 308 308 309 308 307 306 305 304 302 301 301 300 299 298 296 294 293 292 291 291 291 291 291 291 291 291 291 290 290 289 289 288 288 288 288 287 287 286 286 286 286 285 285 285 285 285 284 284
312 311 311 312 312 312 312 312 312 311 310 310 310 309 307 306 306 307 307 306 305 303 301 300 299 299 298 297 296 294 292 291 291 291 291 291 291 291 291 290 290 290 290 289 288 288 288 288 287 287 286 286 286 286 285 285 285 285 284 284 284 284
312 311 311 311 311 311 311 311 311 310 310 309 309 309 307 304 303 304 306 306 304 303 302 300 298 298 297 297 295 294 292 291 291 290 290 290 290 290 290 290 289 289 289 289 288 288 287 287 287 286 286 286 285 285 285 285 284 284 284 284 284 283
312 312 311 311 311 311 311 311 311 310 309 309 309 308 307 304 303 302 303 303 303 302 301 299 298 297 297 296 295 293 292 291 291 290 290 290 290 290 290 289 289 289 289 288 288 287 287 286 286 286 286 285 285 285 284 284 284 284 284 283 283 283
312 311 311 311 311 311 311 310 310 309 309 309 309 308 306 305 303 302 302 302 301 301 300 299 298 297 296 295 293 292 291 291 290 290 290 290 290 290 289 289 289 289 288 288 287 287 286 286 285 285 285 285 284 284 284 283 283 283 283 283 283 282
312 311 311 311 311 311 310 310 309 309 309 308 308 308 307 305 304 302 302 301 300 300 299 298 296 295 294 293 292 291 291 290 290 289 289 289 290 289 289 289 289 288 287 287 287 286 286 285 285 285 284 284 284 283 283 283 283 283 283 282 282 282
312 311 311 311 311 311 310 310 310 309 308 308 308 308 307 305 304 302 301 300 300 299 297 295 294 293 292 291 290 290 290 290 290 289 289 289 289 289 289 288 288 287 287 287 286 286 285 285 285 284 284 284 283 283 283 283 283 282 282 282 281 281
311 311 311 311 311 311 311 310 310 309 309 308 308 307 306 305 303 302 301 300 299 297 295 293 292 291 290 289 289 290 290 290 289 289 289 289 289 288 288 288 287 287 286 286 285 285 285 284 284 284 284 283 283 283 283 282 282 282 281 281 281 281
311 311 311 311 311 311 311 311 310 310 309 308 308 307 305 304 303 301 300 299 297 296 294 293 292 290 289 288 289 289 289 289 289 289 289 289 288 288 288 288 287 286 286 285 285 284 284 284 284 284 283 283 282 282 282 282 282 281 281 280 280 280
312 312 311 311 311 311 311 310 310 309 309 308 307 306 304 303 302 300 299 298 296 295 294 293 291 290 289 288 289 289 289 289 289 289 289 288 288 288 288 287 286 286 286 285 284 284 284 284 284 284 283 283 282 282 281 281 280 280 280 280 280 280
312 312 312 312 312 312 311 311 310 310 309 308 307 305 304 302 301 300 298 297 296 295 293 292 290 289 288 288 289 289 289 289 288 288 288 288 288 287 287 286 286 286 285 284 284 284 284 284 284 283 283 282 282 281 281 280 280 279 280 279 279 279
312 312 313 313 312 312 311 310 310 309 308 307 306 305 304 302 301 300 298 296 295 293 292 291 290 289 288 288 288 288 288 288 288 288 288 287 287 287 287 286 286 285 285 284 284 284 284 284 284 283 282 282 282 281 280 279 279 279 279 279 279 279
313 312 312 312 312 311 311 310 309 309 308 307 306 305 304 303 301 299 297 295 294 292 291 290 289 288 288 288 288 288 288 288 288 287 287 287 287 287 286 286 286 286 285 285 285 284 284 284 283 283 282 282 281 280 280 279 279 279 279 279 279 278
313 312 312 312 311 311 310 310 309 308 308 307 306 305 304 302 300 298 296 295 293 292 290 289 288 288 288 288 288 288 287 287 287 287 287 287 287 286 286 286 286 286 286 285 285 284 284 283 283 282 282 281 281 280 279 279 279 279 279 279 278 278
313 312 312 311 311 310 310 309 309 308 308 307 305 304 303 301 299 298 296 295 293 292 291 290 289 289 288 288 288 288 287 287 287 287 287 287 286 286 286 287 287 286 286 285 285 285 284 283 282 282 281 281 280 279 279 279 279 279 279 278 277 277
312 312 311 311 310 310 309 308 308 308 307 306 305 303 302 301 299 298 297 296 294 293 292 291 290 289 288 288 288 288 287 287 287 287 287 287 287 287 287 287 287 286 285 285 285 284 284 283 282 281 281 280 279 279 279 279 279 279 278 277 276 276
311 311 311 310 310 309 308 308 308 308 307 306 305 303 302 301 301 300 299 297 295 293 292 291 290 289 288 288 288 287 287 287 287 287 287 287 287 287 287 287 287 286 285 285 284 284 283 282 281 281 280 279 279 279 279 279 279 277 276 276 275 275
311 311 311 310 310 309 308 307 307 307 307 306 305 304 303 303 302 301 299 296 294 293 291 290 289 288 288 288 287 287 287 287 287 287 287 287 287 287 287 287 286 285 285 284 284 283 282 281 281 280 279 279 279 279 279 279 278 276 275 275 274 274
311 311 311 310 309 308 307 307 306 306 306 305 305 305 305 303 301 299 298 295 293 292 290 289 288 288 287 287 287 287 287 287 287 287 287 287 288 288 287 287 286 285 285 284 283 282 281 281 280 279 279 279 279 279 279 278 276 275 274 274 274 274
309 309 309 309 309 308 307 306 306 306 305 305 306 306 304 302 300 299 298 295 292 291 290 288 287 287 287 287 287 287 287 287 287 287 287 287 288 288 287 286 286 285 284 283 282 281 280 280 279 279 278 278 279 279 278 276 275 274 274 274 274 274
308 308 308 308 308 307 307 306 305 305 305 306 306 305 303 301 300 299 297 295 292 290 289 288 287 286 286 286 286 286 287 287 287 287 287 288 288 287 287 286 285 284 282 281 281 280 279 279 278 278 278 278 278 279 277 275 274 274 274 273 274 274
306 306 307 307 307 306 306 305 305 304 305 305 305 303 302 301 300 298 296 293 291 290 288 287 286 285 285 286 286 286 286 287 287 287 287 288 287 287 287 286 284 282 281 280 279 279 278 278 278 278 278 278 278 278 276 274 274 274 274 274 274 274
305 305 305 305 305 305 305 304 304 304 304 303 302 301 301 300 299 297 295 292 291 289 288 286 285 285 285 286 286 286 286 287 287 287 287 287 287 287 286 284 282 281 280 279 278 278 278 278 278 278 278 278 278 276 275 274 274 274 274 274 274 274
304 304 304 304 304 304 303 303 303 303 303 301 300 299 299 299 298 296 294 291 290 288 287 286 285 284 285 285 286 286 286 287 287 288 288 288 287 286 284 283 281 280 279 278 278 278 277 277 277 278 278 278 276 274 274 274 274 274 274 274 273 273
302 302 302 302 302 302 302 302 302 302 302 300 298 298 297 297 296 295 293 291 289 287 286 285 284 284 285 285 285 286 286 287 287 288 288 288 287 285 283 282 281 280 279 278 278 277 277 277 277 278 277 276 274 273 273 273 273 274 274 273 272 272
301 301 301 301 301 301 301 301 301 301 301 300 298 297 295 295 294 293 292 290 288 287 286 285 284 284 285 285 285 286 286 287 287 287 287 287 286 284 283 282 281 279 278 278 278 277 277 277 277 277 275 274 272 272 272 273 273 273 273 273 272 272
300 300 300 300 300 300 300 300 301 300 300 300 298 296 295 294 293 291 290 289 287 286 285 284 284 284 285 285 285 286 286 287 288 288 287 285 283 282 281 280 279 279 278 277 277 277 277 277 276 275 274 273 273 272 272 272 273 273 273 272 272 273
300 299 299 299 299 299 299 299 300 300 300 299 298 296 295 293 291 289 288 287 286 285 284 283 283 284 285 285 285 286 286 286 285 285 285 283 281 280 279 279 278 277 277 277 277 277 276 276 275 274 273 273 273 273 273 273 273 273 273 273 273 273
298 298 298 297 297 298 298 298 298 298 298 298 297 296 294 292 291 289 287 286 285 285 284 283 283 284 284 285 286 287 287 285 283 282 281 281 280 279 278 277 277 276 276 276 276 276 275 274 274 273 274 274 273 273 273 273 273 272 272 273 273 273
297 297 297 297 297 297 297 297 297 297 296 296 295 294 293 291 290 289 288 286 284 284 283 283 283 284 284 285 286 287 287 286 284 281 279 278 278 277 277 276 276 276 276 276 275 275 274 274 273 273 274 273 273 273 273 272 272 272 272 273 273 273
297 296 296 295 295 296 296 296 297 297 296 295 294 293 292 291 290 289 287 286 284 283 282 282 283 284 285 286 286 286 285 285 285 283 280 277 276 275 275 276 275 275 274 274 274 273 273 273 273 273 273 273 273 273 273 272 272 272 272 273 273 273
295 295 295 294 294 295 295 295 296 296 295 294 294 292 291 291 289 287 286 286 284 283 282 282 283 284 285 286 286 286 285 284 284 283 281 279 276 275 274 274 274 273 273 273 272 272 272 273 273 273 273 273 273 273 273 272 272 272 272 273 273 272
294 294 294 294 294 294 294 294 294 294 294 293 291 291 290 289 287 285 284 284 284 283 283 283 283 284 286 286 286 286 286 284 282 281 280 279 278 277 276 275 274 273 273 272 272 272 272 273 273 273 273 273 273 273 273 272 272 273 273 273 272 272
292 292 293 293 293 293 293 293 293 293 292 292 290 289 288 287 285 283 282 282 282 282 282 283 284 285 286 286 286 286 285 283 281 279 278 278 278 278 277 275 274 273 273 273 272 272 272 273 273 273 273 273 273 273 273 273 273 273 273 273 272 271
Wind_Speed
30 31 31 32 33 34 35 35 34 34 33 34 36 37 36 35 36 36 36 36 36 35 34 36 39 42 45 47 48 49 48 47 45 43 41 38 35 32 29 27 26 24 23 22 21 22 24 24 24 24 24 23 23 23 22 22 22 23 23 24 25 27
30 31 30 31 33 34 35 35 35 36 36 36 37 38 39 39 39 39 38 38 38 37 36 36 38 41 44 46 48 49 49 48 46 44 42 39 36 33 31 28 26 25 23 22 22 23 24 24 24 24 24 23 23 23 22 22 22 23 24 24 25 26
31 31 31 32 34 34 35 35 36 36 37 39 40 41 41 41 41 41 40 40 40 40 39 38 39 40 43 45 47 49 49 48 46 45 42 40 37 34 31 28 26 25 23 22 23 24 24 24 24 24 24 23 22 22 22 22 22 23 24 24 25 26
29 32 32 33 34 35 36 36 36 36 39 41 42 43 43 42 42 42 42 42 42 43 42 42 42 42 43 45 47 49 49 48 47 45 43 40 37 34 31 28 26 25 23 23 24 24 24 24 24 24 22 22 21 21 21 22 23 23 24 24 25 26
24 27 29 31 32 35 37 37 38 39 40 40 41 44 46 44 44 43 43 43 44 45 45 45 45 44 44 45 46 48 49 48 47 45 43 40 37 34 30 28 26 24 24 24 25 24 24 24 24 22 21 21 21 21 21 22 23 23 24 25 25 26
21 24 27 28 29 32 34 37 39 40 39 38 39 43 46 47 46 44 44 44 44 45 46 47 47 46 46 46 47 48 49 48 47 45 43 40 37 33 30 28 26 25 25 25 25 24 24 24 23 21 20 20 21 22 21 22 22 23 24 25 25 26
23 26 28 27 27 29 33 37 39 39 37 36 37 40 44 47 47 46 44 43 44 45 47 48 49 48 48 47 47 49 49 48 47 45 43 40 36 33 30 28 26 25 26 25 24 24 24 23 21 20 20 20 21 21 22 22 23 23 25 25 26 26
27 30 28 27 28 30 34 37 39 40 37 35 35 38 42 45 46 46 45 43 43 44 46 49 50 50 49 48 48 49 49 48 47 45 42 39 36 32 29 28 26 26 26 25 24 24 23 21 20 19 20 20 21 21 22 23 23 24 25 26 27 26
30 29 27 28 30 32 34 37 39 39 36 35 35 36 39 42 45 45 45 44 44 44 46 49 50 50 50 49 49 49 49 48 47 45 42 38 35 32 29 27 26 26 26 24 24 23 21 20 19 19 20 20 21 21 22 23 24 25 26 27 27 27
30 29 29 31 32 33 33 35 38 38 37 37 36 36 38 40 42 44 44 44 44 45 46 48 49 49 49 49 49 49 48 48 46 44 41 37 34 31 29 27 27 26 25 24 23 22 20 19 19 19 19 20 21 22 23 24 25 26 27 27 28 28
30 30 31 32 33 34 34 36 38 39 40 39 38 38 38 39 41 42 43 44 44 45 45 47 48 48 48 49 49 49 48 48 46 43 40 36 33 30 28 27 27 26 24 23 22 20 18 18 18 18 19 20 21 22 24 25 26 27 28 28 28 29
30 31 33 34 35 35 36 38 39 40 42 41 40 39 38 39 40 42 43 44 43 43 44 46 47 48 48 49 49 49 49 48 45 42 39 35 32 30 29 28 27 25 23 22 20 18 18 18 18 18 19 21 22 24 26 27 28 28 28 29 29 30
29 32 35 36 36 37 38 40 39 40 42 41 40 40 39 39 40 41 42 42 41 42 44 45 47 48 48 48 48 49 49 47 44 41 38 35 32 30 29 27 25 24 22 20 19 18 18 18 18 18 19 21 23 25 27 28 28 28 27 29 30 30
31 33 36 36 36 37 38 39 39 40 41 41 40 39 39 39 39 40 40 40 40 42 44 46 48 49 49 49 49 50 49 47 44 41 38 35 32 30 28 26 24 22 21 19 18 17 18 18 18 18 20 22 23 25 27 28 28 27 28 28 29 29
33 34 36 35 34 35 36 36 37 38 38 38 38 38 38 38 38 38 38 39 40 42 44 47 48 49 49 49 50 50 48 46 43 40 37 35 32 30 27 25 23 21 19 18 17 17 17 17 18 19 20 22 24 24 26 27 27 27 28 29 29 29
33 33 34 34 32 31 31 32 34 34 35 36 36 36 37 37 37 38 38 38 40 42 44 46 47 48 49 49 50 50 47 45 42 39 37 34 31 29 26 23 21 19 18 17 17 17 17 17 18 20 21 22 24 25 24 25 27 27 28 29 28 27
36 34 34 32 29 26 27 29 30 32 33 34 35 35 36 37 37 37 37 38 40 41 43 45 46 48 49 49 49 48 46 44 41 38 36 33 30 27 24 21 19 18 18 18 17 17 16 17 19 20 21 23 24 24 24 25 26 27 29 29 27 26
38 34 32 31 27 25 25 25 26 29 31 33 34 35 36 36 36 37 37 38 40 41 43 45 47 48 48 48 48 48 46 44 41 38 35 31 28 25 22 20 19 18 18 18 18 17 16 17 18 19 21 23 23 23 24 25 26 27 28 28 26 25
36 32 30 28 26 24 24 23 24 27 30 32 34 36 36 36 37 37 37 39 40 42 44 46 48 48 48 49 49 49 47 45 42 38 34 31 27 24 21 20 19 19 19 19 18 18 17 17 17 18 20 22 22 23 24 25 26 27 26 25 25 25
31 28 28 27 25 24 23 23 23 25 28 31 34 36 36 37 37 37 38 39 41 42 44 46 48 48 48 50 50 50 49 46 42 38 34 30 26 24 22 21 20 19 19 19 19 19 18 16 16 17 19 20 21 21 23 24 25 24 24 24 25 26
28 26 27 28 28 26 24 23 23 24 28 30 32 35 36 36 35 35 36 38 40 42 44 46 47 47 48 50 51 51 48 45 41 37 32 29 26 24 23 21 20 20 19 19 19 19 17 15 15 17 18 18 19 20 21 22 22 21 22 24 26 27
28 26 26 27 28 27 25 24 24 25 27 29 31 33 34 34 33 32 34 37 39 41 43 45 47 47 49 51 52 50 47 44 40 36 32 30 27 24 22 21 21 20 19 19 19 19 17 15 14 16 17 17 17 18 18 18 18 20 22 24 26 28
27 27 26 25 26 27 26 25 24 26 27 28 31 32 32 32 31 31 33 36 39 41 43 45 46 47 49 51 52 50 47 43 39 36 32 30 27 24 22 22 21 20 19 19 19 17 16 14 14 15 16 16 15 15 15 15 16 18 20 23 25 28
24 26 26 25 25 26 27 26 26 27 27 29 32 33 32 31 31 31 33 36 40 41 42 44 46 48 50 52 52 51 48 43 39 35 32 29 26 24 23 22 21 20 20 19 17 15 14 13 14 15 15 14 14 13 12 12 14 16 19 23 25 27
23 25 26 27 27 27 27 28 29 29 30 32 34 34 33 32 32 32 34 37 40 41 43 44 47 51 53 53 53 50 47 43 39 35 32 28 26 25 24 23 22 21 20 18 16 14 12 12 13 14 13 13 12 10 9 11 13 15 17 21 24 27
23 25 26 28 30 30 29 29 30 32 35 35 35 35 35 34 33 34 36 38 41 42 44 46 50 53 55 55 53 49 45 42 38 34 31 28 26 25 24 23 23 21 19 17 14 12 12 12 12 12 12 11 10 8 9 11 13 15 17 20 23 26
24 24 26 28 30 31 31 31 31 34 37 38 36 36 36 35 35 36 38 40 42 43 45 48 52 55 56 55 52 49 45 41 36 33 30 28 26 25 24 23 22 20 18 16 13 12 12 12 12 11 10 9 8 9 10 12 14 16 17 20 23 25
27 27 28 28 30 31 32 32 33 34 37 38 37 37 37 37 37 38 39 42 43 44 47 51 55 57 56 53 50 46 43 39 35 32 30 28 26 25 24 23 21 19 18 15 13 12 12 12 11 9 8 8 9 11 12 14 15 17 18 21 22 22
31 32 32 31 31 32 32 33 33 34 36 37 38 37 37 38 39 39 41 43 44 46 49 54 58 60 57 54 50 45 40 37 34 32 30 28 27 26 24 23 21 19 17 15 13 13 12 10 8 6 6 8 10 11 13 15 17 18 20 20 21 21
34 34 34 34 34 32 33 34 34 34 35 37 38 38 38 39 41 42 43 44 46 48 52 57 61 61 58 54 50 45 41 37 33 31 29 27 26 25 24 23 21 18 16 14 14 13 11 8 5 3 6 8 9 10 12 15 16 18 19 19 18 21
34 34 34 36 36 34 35 36 36 35 36 37 39 39 39 41 43 44 45 46 48 51 55 59 61 61 58 53 47 42 38 35 32 30 28 26 24 22 21 20 18 16 15 14 13 12 9 5 1 3 4 5 6 8 10 13 15 17 17 16 18 20
35 35 37 39 39 39 39 39 38 37 37 38 40 40 41 43 45 46 48 49 51 54 58 61 61 59 56 52 48 43 37 32 30 28 27 25 24 22 21 19 17 16 15 14 12 10 6 3 2 2 1 4 6 6 8 11 13 14 15 15 17 19
39 39 41 42 41 41 41 40 38 38 38 39 41 41 42 44 47 49 51 52 55 58 61 63 62 58 55 51 47 43 39 35 32 29 26 25 24 22 21 19 18 16 15 13 10 7 4 3 2 1 2 4 5 6 8 10 11 12 14 16 18 18
41 42 43 43 41 41 41 41 40 39 39 40 40 40 42 45 48 52 54 55 58 60 62 64 63 60 56 51 45 42 40 38 36 33 29 27 25 23 22 20 18 16 14 12 9 7 5 4 3 2 2 3 5 6 7 8 10 12 14 15 16 18
42 43 44 44 43 43 42 42 42 41 42 41 41 42 43 46 50 53 55 57 60 62 63 64 63 61 57 52 47 43 40 39 37 36 33 30 27 24 22 21 18 16 13 11 9 7 6 5 4 2 3 3 4 5 6 7 9 12 13 14 16 18
43 45 46 46 46 44 43 43 44 43 43 43 42 43 45 47 51 54 56 59 61 64 65 66 64 60 56 51 47 44 41 38 36 35 34 33 31 28 25 22 20 18 16 14 12 10 8 6 4 3 4 3 3 4 5 7 8 9 11 13 15 18
43 45 47 47 46 45 45 46 46 44 43 42 42 43 45 48 52 55 57 59 61 64 66 66 64 59 55 50 46 44 41 38 36 34 33 33 32 30 28 26 23 20 18 16 15 13 10 8 6 5 5 4 3 3 5 6 6 7 9 12 15 17
43 45 47 47 46 45 46 46 46 44 43 42 42 43 45 49 53 56 58 60 62 64 66 65 62 57 53 49 45 42 40 38 36 34 32 31 29 28 26 25 24 21 19 17 16 14 12 10 7 6 6 4 2 3 4 5 6 9 12 14 16 18
Wind_Direction
223 222 220 220 222 222 223 223 223 224 226 228 230 230 231 232 232 233 233 234 236 238 240 241 242 242 240 238 236 234 233 232 231 229 228 229 231 234 237 240 243 247 250 255 260 264 267 273 279 284 289 294 296 298 298 297 298 299 301 305 307 310
227 226 225 225 227 227 226 226 227 229 230 231 233 233 233 234 235 235 235 236 236 237 238 240 241 242 240 238 236 235 233 232 231 230 228 229 230 233 235 238 241 245 249 253 258 262 266 272 279 283 287 291 293 294 294 295 296 298 302 306 308 309
231 227 228 229 230 229 228 230 231 233 235 237 237 236 236 236 237 237 237 237 237 237 237 239 240 240 240 238 236 235 234 232 231 229 228 229 230 232 234 236 240 244 248 253 257 261 267 272 278 282 285 288 290 291 293 293 295 298 302 305 306 305
237 230 231 232 232 232 232 232 233 235 238 239 239 239 239 239 239 239 239 238 237 238 237 237 237 238 238 237 236 234 232 231 229 228 228 229 229 231 233 235 240 243 248 253 257 261 267 273 277 280 283 286 288 289 290 291 294 298 302 303 303 303
239 234 236 239 239 238 238 237 238 240 242 243 243 243 242 241 240 239 239 238 238 238 237 236 236 236 236 236 235 233 230 229 228 227 228 229 229 230 232 235 239 244 248 253 257 261 267 272 275 278 281 284 286 286 287 291 294 298 299 300 301 303
232 234 240 243 245 247 248 248 248 247 247 250 253 251 246 242 239 238 238 239 239 238 237 236 235 235 235 235 234 231 229 227 226 226 227 228 229 230 232 236 239 244 249 253 256 261 266 270 273 277 280 282 283 284 287 291 294 296 297 299 302 304
238 244 245 246 253 260 260 256 254 253 252 256 261 259 250 243 239 238 239 239 239 238 238 236 235 235 234 234 233 230 227 225 224 225 226 226 228 230 232 236 240 245 250 253 257 261 265 269 273 277 279 281 282 285 290 292 293 295 297 299 303 305
249 250 247 250 260 265 265 261 257 253 252 257 264 263 255 247 242 239 239 239 239 239 239 237 235 235 234 233 231 228 225 223 223 223 224 225 227 230 233 237 242 247 251 254 257 261 264 269 274 277 279 281 283 287 291 292 293 296 297 300 304 306
250 248 251 260 265 266 266 264 257 253 254 259 265 265 260 252 244 241 241 240 240 240 240 238 236 234 233 231 229 226 223 222 222 222 223 224 226 229 233 238 242 247 251 254 257 261 266 271 274 277 279 282 286 289 290 292 294 296 298 302 305 307
249 252 258 262 263 265 267 265 260 257 259 263 265 265 261 254 247 244 243 242 242 242 241 237 234 231 230 229 226 223 221 220 220 220 221 223 225 229 233 238 243 247 250 254 258 263 268 272 274 278 281 284 288 290 291 293 295 297 299 303 305 309
253 257 259 259 259 262 264 264 262 260 259 260 263 262 259 255 249 246 245 244 244 242 238 233 230 228 227 225 222 220 219 219 218 218 219 221 224 228 233 238 242 247 250 254 259 264 270 273 277 281 285 288 290 292 293 294 295 298 301 304 307 311
260 261 259 257 257 259 260 262 262 261 259 259 259 259 256 252 249 247 245 244 243 239 234 230 228 225 223 221 219 218 218 217 216 216 217 219 222 227 232 238 242 246 251 255 260 266 270 274 279 285 288 292 293 293 294 295 297 300 303 306 310 312
267 266 262 258 257 259 260 260 260 259 258 257 257 256 254 250 248 246 245 244 241 236 232 229 226 223 220 219 217 217 216 215 215 214 215 217 221 226 231 237 242 246 251 256 261 266 271 276 283 289 293 295 296 296 297 298 300 303 305 307 310 312
275 273 268 263 261 261 260 258 256 256 256 256 255 254 251 249 247 246 245 243 240 236 233 229 225 221 219 218 216 216 215 214 213 212 214 216 220 225 230 235 241 245 251 257 261 267 273 280 288 294 297 297 297 299 299 300 301 302 304 307 309 310
278 276 273 271 269 268 264 259 257 258 258 256 255 253 250 249 248 247 245 242 239 236 232 227 223 220 218 217 216 215 213 212 211 211 213 215 219 224 229 234 239 245 251 257 263 270 276 284 292 297 298 298 299 299 298 298 299 301 304 306 306 307
279 277 278 279 277 273 267 262 259 259 257 254 252 252 251 251 249 246 244 241 237 234 229 225 222 219 217 215 214 213 211 210 210 210 212 215 219 223 228 232 239 245 253 260 266 273 280 288 295 299 300 299 299 298 296 296 297 299 301 302 303 307
282 282 284 285 282 275 265 259 256 255 253 251 251 251 251 250 247 244 242 238 234 230 226 223 220 217 216 215 212 210 209 208 208 209 212 215 219 223 227 232 239 247 255 262 268 274 281 289 294 298 300 298 297 296 294 293 294 296 298 300 305 312
284 287 290 289 284 276 266 259 255 253 252 251 250 248 247 246 243 241 238 235 231 228 225 223 220 218 216 214 211 209 207 207 208 209 212 215 219 222 226 233 241 250 256 261 267 273 279 285 291 295 297 297 295 293 291 291 293 294 298 304 311 317
284 289 293 290 284 280 273 263 257 253 249 246 244 243 241 240 239 238 236 234 231 229 227 225 222 219 217 214 210 208 207 207 207 209 212 215 218 222 227 235 242 249 254 259 264 269 274 280 287 293 295 294 292 290 289 290 292 295 301 309 316 320
287 291 294 291 285 283 276 264 257 250 243 240 240 239 238 237 237 237 236 235 233 230 228 226 223 220 216 212 209 207 206 206 207 208 211 214 217 222 228 235 242 247 251 257 261 266 270 277 285 289 291 291 288 286 287 289 293 299 307 315 320 323
286 287 293 294 289 285 278 267 255 245 240 239 238 237 237 237 238 239 238 236 234 231 228 226 223 219 215 211 208 207 205 205 206 207 209 212 216 221 227 234 241 245 249 254 259 264 269 275 282 286 286 285 283 283 287 290 296 305 315 322 324 322
278 280 289 294 291 287 280 269 255 246 243 242 239 239 241 241 241 240 239 236 232 229 227 225 221 217 213 209 206 205 204 205 206 206 209 212 215 220 227 233 238 242 248 253 257 262 268 273 280 282 281 279 281 284 287 292 302 314 322 324 320 315
273 277 283 289 292 290 282 270 257 251 248 244 244 247 248 244 240 238 237 234 230 227 224 222 219 215 211 208 206 204 203 204 206 207 209 212 215 220 225 231 236 241 246 250 253 258 266 273 277 277 276 278 282 285 289 297 311 320 319 314 311 311
282 283 285 291 297 296 289 277 265 258 253 253 256 255 249 242 238 237 236 232 228 224 221 218 216 212 209 206 205 204 203 203 205 207 209 211 215 220 224 229 234 238 241 244 249 255 263 271 275 275 277 280 283 287 296 309 317 316 310 308 311 316
299 296 294 296 299 298 293 284 273 264 261 264 264 255 244 239 238 236 234 229 225 221 218 215 211 208 206 204 204 204 204 204 204 206 208 211 215 219 223 228 231 233 235 239 244 250 257 263 269 274 279 281 284 294 312 320 315 310 310 311 315 321
310 303 298 297 297 295 293 288 280 271 268 269 264 252 242 238 235 233 230 226 222 218 215 212 208 205 204 203 203 204 204 205 205 205 206 210 214 219 223 226 227 228 229 233 237 243 250 257 262 269 275 280 292 315 331 327 318 318 320 319 322 328
317 307 299 298 297 294 292 289 285 279 274 269 261 252 245 239 235 232 228 223 219 216 212 209 206 203 203 203 204 204 204 205 205 205 206 209 213 218 221 222 223 225 226 227 230 234 243 253 258 263 272 289 318 340 341 331 326 329 330 326 328 334
316 308 301 300 299 298 295 291 288 286 281 271 262 256 249 242 236 231 226 221 217 213 210 206 203 201 201 202 203 205 206 207 207 207 209 211 213 216 218 219 220 222 223 223 224 228 236 246 255 265 286 322 345 348 341 334 332 334 333 331 334 336
309 305 302 300 299 299 297 292 290 288 282 272 265 259 250 242 236 231 225 220 216 211 208 205 202 200 200 200 201 202 203 205 207 210 212 213 213 214 215 217 219 220 221 220 221 226 232 239 252 276 322 353 355 344 335 335 336 336 336 338 339 335
301 301 300 300 300 298 295 292 290 287 281 274 267 260 251 242 237 231 225 220 215 210 206 204 202 200 199 199 199 199 200 202 205 209 213 215 216 217 216 217 218 218 218 219 222 227 230 233 250 319 1 0 348 335 330 332 333 335 338 340 336 330
297 298 299 300 300 297 294 292 288 283 280 275 268 260 252 243 236 229 224 218 213 209 205 202 202 201 199 198 197 197 200 203 207 210 211 211 212 214 215 218 217 215 215 218 220 224 226 228 240 37 20 344 328 325 324 326 329 333 336 336 332 330
295 295 296 298 297 294 292 289 283 278 276 273 266 259 251 243 234 226 221 216 211 207 204 201 200 200 200 199 196 194 194 197 202 206 208 207 207 207 208 211 212 210 212 215 216 216 216 203 94 69 353 313 319 322 320 322 327 331 330 331 333 335
295 294 295 297 296 293 289 284 277 274 271 266 262 256 249 242 233 224 219 215 211 208 204 201 198 198 198 198 198 197 195 193 193 195 198 201 203 202 202 204 204 203 205 207 209 207 194 158 133 152 290 306 317 321 323 324 327 329 330 332 335 340
294 294 296 296 294 291 287 282 278 275 270 264 259 252 246 240 234 227 221 215 210 207 204 200 198 197 196 195 196 197 198 196 193 190 190 193 195 197 198 199 199 200 200 199 198 195 183 172 179 225 284 303 311 320 327 328 327 329 331 332 336 343
292 293 293 293 291 289 286 283 280 276 271 265 260 252 246 241 235 229 222 215 209 205 202 199 198 197 195 194 193 193 195 196 196 192 189 187 187 189 194 195 194 195 195 194 191 189 191 191 194 232 269 287 304 318 331 335 330 329 331 337 343 350
291 291 290 289 289 287 285 282 280 275 270 265 258 252 246 241 234 227 222 217 211 206 201 199 198 197 195 194 194 194 194 194 195 194 191 187 184 184 189 190 189 189 192 194 192 191 197 202 206 229 254 269 290 317 342 347 337 330 336 347 355 0
289 288 287 287 286 285 283 283 281 277 269 263 257 250 244 237 229 223 219 216 212 207 202 198 196 195 193 193 194 195 194 192 191 192 192 191 190 190 190 189 186 187 191 193 193 195 200 203 206 220 238 256 285 331 354 348 335 339 353 2 7 12
287 286 285 285 284 283 283 283 282 277 270 264 257 249 241 234 226 219 215 212 210 206 202 198 195 193 192 192 192 193 192 191 190 190 190 191 193 194 190 185 183 186 189 191 192 196 199 197 199 214 228 243 283 343 359 353 353 5 10 11 13 15